Regional Weather Roundup
Issued by NWS

Home | Current Version | Previous Version | Text Only | Print | Product List | Glossary On
Versions: 1 2 3 4 5 6 7 8 9 10 11 12 13 14 15 16 17 18 19 20 21 22 23 24 25 26 27 28 29 30 31 32 33 34 35 36 37 38 39 40 41 42 43 44 45 46 47 48 49 50
000
ASUS43 KDTX 301210
RWRMI
MICHIGAN HOURLY REGIONAL WEATHER ROUNDUP
NATIONAL WEATHER SERVICE DETROIT/PONTIAC MI
800 AM EDT SAT APR 30 2016

NOTE: "FAIR" INDICATES FEW OR NO CLOUDS BELOW 12,000 FEET WITH NO
SIGNIFICANT WEATHER AND/OR OBSTRUCTION TO VISIBILITY.

MIZ047>049-052>055-059>063-066>070-074>076-081>083-301300-
SOUTHEAST LOWER MICHIGAN

CITY           SKY/WX    TMP DP  RH WIND       PRES   REMARKS
ADRIAN         CLOUDY    44  37  76 E7        30.14R
6HR MIN TEMP:  40; 6HR MAX TEMP:  47;

ALMA           CLOUDY    39  34  81 NE3       30.19R
6HR MIN TEMP:  31; 6HR MAX TEMP:  39;

ANN ARBOR      MOSUNNY   44  32  62 NE9       30.13F
BAD AXE        CLOUDY    41  32  70 NE3       30.19R
CARO           CLOUDY    38  32  76 CALM      30.18R
DETROIT CITY   CLOUDY    43  34  70 E6        30.17R
6HR MIN TEMP:  39; 6HR MAX TEMP:  44;

DETROIT        CLOUDY    45  32  60 NE7       30.15F
6HR MIN TEMP:  41; 6HR MAX TEMP:  46;

FLINT          CLOUDY    44  33  65 NE5       30.18R
6HR MIN TEMP:  36; 6HR MAX TEMP:  44;

GROSSE ILE     MOSUNNY   45  37  76 NE7       30.13F
HILLSDALE      CLOUDY    44  38  82 E7        30.12R
6HR MIN TEMP:  42; 6HR MAX TEMP:  46;

HOWELL         CLOUDY    42  36  78 NE3       30.15S

CITY           SKY/WX    TMP DP  RH WIND       PRES   REMARKS
JACKSON        CLOUDY    44  35  70 E8        30.13R
6HR MIN TEMP:  43; 6HR MAX TEMP:  48;

LAMBERTVILLE   MOSUNNY   46  40  82 E3        30.13S
6HR MIN TEMP:  39; 6HR MAX TEMP:  46;

LANSING        CLOUDY    42  36  79 E3        30.16R
6HR MIN TEMP:  36; 6HR MAX TEMP:  42;

LAPEER         FAIR      42  32  67 CALM      30.17R
6HR MIN TEMP:  35; 6HR MAX TEMP:  42;

MASON          MOSUNNY   42  35  76 CALM      30.14S
MONROE         CLOUDY    44  38  82 E6        30.13F
6HR MIN TEMP:  37; 6HR MAX TEMP:  44;

MT. CLEMENS    SUNNY     44  36  74 E7        30.15S
6HR MIN TEMP:  36; 6HR MAX TEMP:  44;

PONTIAC        CLOUDY    44  31  60 E6        30.14S
6HR MIN TEMP:  38; 6HR MAX TEMP:  45;

PORT HOPE        N/A     41  36  82 NE7       30.17S
6HR MIN TEMP:  33; 6HR MAX TEMP:  41;

PORT HURON     SUNNY     41  37  87 CALM      30.18R
TRI CITIES     CLOUDY    43  34  70 NE5       30.19R
6HR MIN TEMP:  36; 6HR MAX TEMP:  43;

MIDLAND        FAIR      41  37  83 NE6       30.19R
6HR MIN TEMP:  30; 6HR MAX TEMP:  41;

TROY           CLOUDY    45  31  59 NE3       30.17S
SAGINAW HB     CLOUDY    37  32  81 CALM      30.19R
$$
MIZ043>046-050>051-056>058-064>065-071>073-077>080-301300-
SOUTHWEST LOWER MICHIGAN

CITY           SKY/WX    TMP DP  RH WIND       PRES   REMARKS
BATTLE CREEK   CLOUDY    46  38  73 E7        30.13R
6HR MIN TEMP:  45; 6HR MAX TEMP:  48;

BENTON HARBOR  CLOUDY    47  38  71 E8        30.10R
6HR MIN TEMP:  42; 6HR MAX TEMP:  48;

BIG RAPIDS     CLOUDY    37  34  89 CALM      30.17R
6HR MIN TEMP:  32; 6HR MAX TEMP:  37;

COLDWATER      CLOUDY    46  39  77 E8        30.11R
6HR MIN TEMP:  45; 6HR MAX TEMP:  47;

FREMONT        FAIR      41  37  86 E9        30.15S
HOLLAND        CLOUDY    43  38  82 E7        30.13S
6HR MIN TEMP:  39; 6HR MAX TEMP:  44;

GRAND RAPIDS   PTSUNNY   42  37  82 E10       30.14S
6HR MIN TEMP:  38; 6HR MAX TEMP:  42;

IONIA          FAIR      39  36  88 NE6       30.15R WCI  35
6HR MIN TEMP:  35; 6HR MAX TEMP:  41;

KALAMAZOO      CLOUDY    47  38  71 E5        30.12R
6HR MIN TEMP:  47; 6HR MAX TEMP:  49;

LUDINGTON      CLOUDY    39  37  94 E5        30.17R
6HR MIN TEMP:  29; 6HR MAX TEMP:  39;

MARSHALL       CLOUDY    45  39  81 E3        30.12R
6HR MIN TEMP:  42; 6HR MAX TEMP:  48;

MOUNT PLEASANT CLOUDY    38  35  89 CALM      30.18R
6HR MIN TEMP:  33; 6HR MAX TEMP:  38;

MUSKEGON       CLOUDY    43  36  76 E10       30.14S
6HR MIN TEMP:  37; 6HR MAX TEMP:  43;

SOUTH HAVEN    CLOUDY    44  42  92 CALM      30.11R
$$
MIZ016>042-301300-
NORTHERN LOWER MICHIGAN

CITY           SKY/WX    TMP DP  RH WIND       PRES   REMARKS
ALPENA         SUNNY     38  34  85 CALM      30.22R
6HR MIN TEMP:  27; 6HR MAX TEMP:  38;

BEAVER ISLAND  SUNNY     41  35  77 CALM      30.20S
6HR MIN TEMP:  29; 6HR MAX TEMP:  42;

BELLAIRE       SUNNY     36  33  86 CALM      30.19S
6HR MIN TEMP:  31; 6HR MAX TEMP:  38;

CADILLAC       SUNNY     37  31  77 CALM      30.17R
CHARLEVOIX     SUNNY     41  31  68 E3        30.22R
6HR MIN TEMP:  36; 6HR MAX TEMP:  44;

FRANKFORT      CLOUDY    37  35  92 CALM      30.18R
GAYLORD        SUNNY     41  30  65 CALM      30.17S
6HR MIN TEMP:  31; 6HR MAX TEMP:  41;

GRAYLING       SUNNY     34  30  86 CALM      30.19S
HARBOR SPRINGS SUNNY     38  33  84 E6        30.20R WCI  33
HOUGHTON LAKE  SUNNY     37  29  72 E3        30.19R
6HR MIN TEMP:  30; 6HR MAX TEMP:  37;

MANISTEE       CLOUDY    37  34  87 E6        30.18R WCI  33
OSCODA         SUNNY     36  31  82 CALM      30.20R
6HR MIN TEMP:  27; 6HR MAX TEMP:  36;

PELLSTON       SUNNY     35  30  82 CALM      30.21R
6HR MIN TEMP:  26; 6HR MAX TEMP:  35;

ROGERS CITY    SUNNY     37  34  88 CALM      30.23R
TRAVERSE CITY  MOSUNNY   40  34  79 CALM      30.17R
6HR MIN TEMP:  32; 6HR MAX TEMP:  40;

$$
MIZ007>008-015-301300-
EASTERN UPPER MICHIGAN

CITY           SKY/WX    TMP DP  RH WIND       PRES   REMARKS
KINROSS          N/A     36  34  93 NE3       30.22R
6HR MIN TEMP:  32; 6HR MAX TEMP:  36;

MACKINAC ISLAN SUNNY     40  32  73 E6        30.20S
6HR MIN TEMP:  34; 6HR MAX TEMP:  40;

NEWBERRY       SUNNY     37  33  86 N3        30.20R
6HR MIN TEMP:  30; 6HR MAX TEMP:  40;

S. S. MARIE    MOSUNNY   36  32  85 E3        30.22R
6HR MIN TEMP:  34; 6HR MAX TEMP:  38;

MUNISING         N/A     35  32  88 CALM      30.22R
6HR MIN TEMP:  30; 6HR MAX TEMP:  37;

$$
MIZ004>006-011>014-085-301300-
CENTRAL UPPER MICHIGAN

CITY           SKY/WX    TMP DP  RH WIND       PRES   REMARKS
MANISTIQUE     SUNNY     37  33  85 N6        30.20S WCI  33
6HR MIN TEMP:  30; 6HR MAX TEMP:  37;

ESCANABA       MOSUNNY   41  32  70 N7        30.20S
6HR MIN TEMP:  37; 6HR MAX TEMP:  41;

MENOMINEE      CLOUDY    43  30  61 NE7       30.17S
6HR MIN TEMP:  37; 6HR MAX TEMP:  43;

SAWYER-GWINN   PTSUNNY   37  32  81 N7        30.23R WCI  32
$$
MIZ001>003-009>011-084-301300-
WESTERN UPPER MICHIGAN

CITY           SKY/WX    TMP DP  RH WIND       PRES   REMARKS
IRON MOUNTAIN  CLOUDY    35  29  78 NW3       30.18S
6HR MIN TEMP:  30; 6HR MAX TEMP:  38;

HOUGHTON       SUNNY     42  31  64 NE5       30.24R
6HR MIN TEMP:  38; 6HR MAX TEMP:  42;

COPPER HARBOR    N/A     39  36  89 N3        30.27R
6HR MIN TEMP:  35; 6HR MAX TEMP:  40;

IRONWOOD         N/A     36  34  93 E6        30.20S WCI  31
6HR MIN TEMP:  30; 6HR MAX TEMP:  36;

$$

ABBREVIATIONS USED IN REMARKS
   TC - TEMPERATURE IN CELSIUS
  WCI - WIND CHILL INDEX
   HX - HEAT INDEX
  VSB - VISIBILITY




USA.gov is the U.S. government's official web portal to all federal, state and local government web resources and services.